EW7402 Weather Reports


time (UTC)temp
C
wind
direction
speed
KPH
gust
KPH
rain 1hr
cm
rain 24hr
cm
rain mn
cm
humidity
%
barometer
mb
20260507034221 4 332 3.2 6.4 0.00 0.00 0.00 89 1013.3
20260507033723 5 9 4.8 8.0 0.00 0.00 0.00 89 1013.4
20260507033219 5 349 4.8 8.0 0.00 0.00 0.00 88 1013.3
20260507032720 5 9 4.8 8.0 0.00 0.00 0.00 88 1013.4
20260507032453 5 13 4.8 8.0 0.00 0.00 0.00 88 1013.3
20260507031722 5 0 4.8 8.0 0.00 0.00 0.00 88 1013.3
20260507031221 5 10 4.8 8.0 0.00 0.00 0.00 88 1013.3
20260507030952 5 15 3.2 8.0 0.00 0.00 0.00 88 1013.2
20260507030233 5 342 3.2 6.4 0.00 0.00 0.00 88 1013.2
20260507025719 5 351 3.2 8.0 0.00 0.00 0.00 88 1013.2
20260507025220 5 340 3.2 8.0 0.00 0.00 0.00 88 1013.2
20260507024720 5 27 3.2 8.0 0.00 0.00 0.00 88 1013.2
20260507024217 5 27 4.8 8.0 0.00 0.00 0.00 87 1013.2
20260507023717 5 349 3.2 8.0 0.00 0.00 0.00 87 1013.1
20260507023218 5 355 3.2 11.3 0.00 0.00 0.00 87 1013.0
20260507022719 5 9 4.8 11.3 0.00 0.00 0.00 87 1013.1
20260507022219 5 9 3.2 6.4 0.00 0.00 0.00 87 1013.1
20260507021717 5 0 3.2 8.0 0.00 0.00 0.00 87 1013.0
20260507021218 5 330 3.2 8.0 0.00 0.00 0.00 87 1013.0
20260507020717 5 355 3.2 9.7 0.00 0.00 0.00 87 1013.0
20260507020218 5 0 3.2 9.7 0.00 0.00 0.00 87 1012.8
20260507015717 5 27 3.2 9.7 0.00 0.00 0.00 86 1012.8
20260507015217 5 22 4.8 16.1 0.00 0.00 0.00 86 1012.7
20260507014717 5 15 6.4 16.1 0.00 0.00 0.00 87 1012.6
20260507014227 6 19 6.4 14.5 0.00 0.00 0.00 86 1012.6
20260507013223 6 19 6.4 17.7 0.00 0.00 0.00 86 1012.6
20260507012948 6 333 6.4 14.5 0.00 0.00 0.00 87 1012.7
20260507012212 6 24 6.4 14.5 0.00 0.00 0.00 86 1012.7
20260507011706 6 355 6.4 16.1 0.00 0.00 0.00 86 1012.6
20260507011159 6 13 6.4 16.1 0.00 0.00 0.00 86 1012.6
20260507010654 6 9 6.4 16.1 0.00 0.00 0.00 86 1012.7
20260507010148 6 355 6.4 16.1 0.00 0.00 0.00 86 1012.6
20260507005642 6 333 6.4 16.1 0.00 0.00 0.00 86 1012.7
20260507005136 6 342 6.4 16.1 0.00 0.00 0.00 86 1012.6
20260507004629 6 17 6.4 14.5 0.00 0.00 0.00 86 1012.6
20260507004126 6 0 6.4 14.5 0.00 0.00 0.00 86 1012.5
20260507003618 6 5 6.4 16.1 0.00 0.00 0.00 86 1012.5
20260507003112 6 350 6.4 12.9 0.00 0.00 0.00 86 1012.4
20260507002607 6 342 6.4 16.1 0.00 0.00 0.00 86 1012.4
20260507002333 6 5 6.4 16.1 0.00 0.00 0.00 86 1012.5
20260507001554 6 348 8.0 16.1 0.00 0.00 0.00 86 1012.4
20260507001047 6 344 6.4 14.5 0.00 0.00 0.00 86 1012.6
20260507000544 6 349 6.4 14.5 0.00 0.00 0.00 86 1012.6
20260507000037 6 351 6.4 12.9 0.00 0.00 0.00 86 1012.6
20260506235531 6 9 6.4 14.5 0.00 0.00 0.00 86 1012.6
20260506235024 6 349 6.4 14.5 0.00 0.00 0.00 85 1012.6
20260506234518 6 350 6.4 14.5 0.00 0.00 0.00 85 1012.6
20260506234012 6 16 6.4 14.5 0.00 0.00 0.00 85 1012.5
20260506233508 6 0 6.4 14.5 0.00 0.00 0.00 85 1012.5
20260506233000 6 355 6.4 14.5 0.00 0.00 0.00 85 1012.5
20260506232454 6 344 6.4 14.5 0.00 0.00 0.00 85 1012.5
20260506231948 6 5 6.4 14.5 0.00 0.00 0.00 85 1012.5
20260506231443 6 0 4.8 14.5 0.00 0.00 0.00 85 1012.5
20260506230937 6 345 4.8 9.7 0.00 0.00 0.00 85 1012.5
20260506230442 6 351 4.8 9.7 0.00 0.00 0.00 84 1012.6
20260506230154 6 0 6.4 12.9 0.00 0.00 0.00 84 1012.4
20260506225418 6 13 6.4 14.5 0.00 0.00 0.00 84 1012.5
20260506224915 6 355 6.4 12.9 0.00 0.00 0.00 84 1012.4
20260506224701 6 344 6.4 12.9 0.00 0.00 0.00 84 1012.4
20260506223415 7 347 6.4 12.9 0.00 0.00 0.00 83 1012.4
20260506222914 7 13 6.4 12.9 0.00 0.00 0.00 83 1012.3
20260506222429 7 344 6.4 12.9 0.00 0.00 0.00 83 1012.2
20260506221916 7 9 6.4 12.9 0.00 0.00 0.00 83 1012.1
20260506221415 7 329 6.4 14.5 0.00 0.00 0.00 82 1012.1
20260506220916 7 355 6.4 14.5 0.00 0.00 0.00 82 1012.2
20260506220415 7 351 6.4 14.5 0.00 0.00 0.00 82 1012.1
20260506215914 7 9 6.4 14.5 0.00 0.00 0.00 82 1011.9
20260506215414 7 10 6.4 14.5 0.00 0.00 0.00 82 1012.1
20260506214914 7 9 4.8 14.5 0.00 0.00 0.00 81 1012.1
20260506214414 7 9 6.4 16.1 0.00 0.00 0.00 81 1012.2
20260506214142 7 321 6.4 16.1 0.00 0.00 0.00 81 1012.2
20260506213411 8 351 6.4 14.5 0.00 0.00 0.00 81 1012.2
20260506212910 8 13 4.8 14.5 0.00 0.00 0.00 81 1012.1
20260506212409 8 348 4.8 14.5 0.00 0.00 0.00 80 1012.1
20260506212143 8 15 4.8 14.5 0.00 0.00 0.00 80 1012.0
20260506211409 8 9 6.4 17.7 0.00 0.00 0.00 80 1012.1
20260506210909 8 60 8.0 19.3 0.00 0.00 0.00 80 1012.0
20260506210407 8 38 6.4 19.3 0.00 0.00 0.00 80 1012.0
20260506205908 8 28 4.8 17.7 0.00 0.00 0.00 80 1011.9
20260506205408 8 65 4.8 14.5 0.00 0.00 0.00 79 1011.9
20260506204903 9 350 4.8 14.5 0.00 0.00 0.00 79 1011.9
20260506204405 9 0 6.4 16.1 0.00 0.00 0.00 79 1011.9
20260506203901 9 24 6.4 17.7 0.00 0.00 0.00 79 1011.9
20260506203403 9 118 6.4 17.7 0.00 0.00 0.00 79 1012.0
20260506202901 9 318 6.4 16.1 0.00 0.00 0.00 79 1011.9
20260506202402 9 325 6.4 14.5 0.00 0.00 0.00 78 1011.9
20260506201901 9 9 4.8 17.7 0.00 0.00 0.00 78 1011.9
20260506201358 10 47 4.8 17.7 0.00 0.00 0.00 78 1011.9
20260506200910 10 21 4.8 17.7 0.00 0.00 0.00 78 1011.8
20260506200358 10 336 6.4 16.1 0.00 0.00 0.00 77 1011.8
20260506195857 10 0 4.8 16.1 0.00 0.00 0.00 77 1011.7
20260506195412 10 15 4.8 12.9 0.00 0.00 0.00 76 1011.6
20260506194401 10 11 4.8 16.1 0.00 0.00 0.00 75 1011.4
20260506193857 10 28 4.8 17.7 0.00 0.00 0.00 75 1011.4
20260506193359 10 26 4.8 17.7 0.00 0.00 0.00 75 1011.3
20260506193129 10 18 4.8 16.1 0.00 0.00 0.00 74 1011.3
20260506192351 10 48 4.8 16.1 0.00 0.00 0.00 74 1011.2
20260506191842 10 38 4.8 14.5 0.00 0.00 0.00 73 1011.2
20260506191613 10 57 4.8 19.3 0.00 0.00 0.00 72 1011.1
20260506190832 10 58 6.4 19.3 0.00 0.00 0.00 72 1011.0
20260506190326 10 58 8.0 25.7 0.00 0.00 0.00 71 1011.0
20260506185820 10 88 6.4 25.7 0.00 0.00 0.00 71 1011.0
20260506185315 11 288 6.4 19.3 0.00 0.00 0.00 71 1011.0
20260506184808 11 55 9.7 24.1 0.00 0.00 0.00 71 1010.9
20260506184303 11 40 9.7 24.1 0.00 0.00 0.00 71 1010.8
20260506183759 11 34 8.0 20.9 0.00 0.00 0.00 71 1010.8
20260506183250 11 38 8.0 20.9 0.00 0.00 0.00 71 1010.7
20260506182744 11 344 8.0 20.9 0.00 0.00 0.00 70 1010.5
20260506182511 11 57 8.0 20.9 0.00 0.00 0.00 70 1010.6
20260506181732 11 46 9.7 20.9 0.00 0.00 0.00 69 1010.4
20260506181226 11 96 9.7 22.5 0.00 0.00 0.00 70 1010.4
20260506180720 11 91 9.7 24.1 0.00 0.00 0.00 70 1010.3
20260506180214 11 350 9.7 24.1 0.00 0.00 0.00 70 1010.2
20260506175709 12 0 9.7 20.9 0.00 0.00 0.00 70 1010.2
20260506175202 12 34 9.7 25.7 0.00 0.00 0.00 70 1010.1
20260506174656 12 58 9.7 25.7 0.00 0.00 0.00 69 1010.0
20260506174150 12 30 9.7 27.4 0.00 0.00 0.00 69 1009.9
20260506173644 12 26 9.7 27.4 0.00 0.00 0.00 70 1009.7
20260506173136 12 355 9.7 27.4 0.00 0.00 0.00 70 1009.8
20260506172631 12 51 6.4 20.9 0.00 0.00 0.00 70 1009.8
20260506172125 12 46 8.0 29.0 0.00 0.00 0.00 69 1009.5
20260506171620 12 62 6.4 29.0 0.00 0.00 0.00 69 1009.6
20260506171126 12 37 4.8 16.1 0.00 0.00 0.00 69 1009.5
20260506170606 12 0 6.4 16.1 0.00 0.00 0.00 69 1009.6
20260506170116 12 76 6.4 22.5 0.00 0.00 0.00 68 1009.5
20260506165556 12 67 6.4 22.5 0.00 0.00 0.00 68 1009.5
20260506165321 12 53 8.0 20.9 0.00 0.00 0.00 68 1009.5
20260506164544 12 32 8.0 20.9 0.00 0.00 0.00 69 1009.5
20260506164041 12 135 6.4 17.7 0.00 0.00 0.00 68 1009.4
20260506163532 12 92 6.4 20.9 0.00 0.00 0.00 69 1009.4
20260506163303 12 26 8.0 20.9 0.00 0.00 0.00 69 1009.4
20260506162520 12 26 6.4 19.3 0.00 0.00 0.00 69 1009.5
20260506162027 12 0 6.4 22.5 0.00 0.00 0.00 69 1009.5
20260506161511 13 61 6.4 22.5 0.00 0.00 0.00 69 1009.4
20260506161002 13 55 6.4 25.7 0.00 0.00 0.00 69 1009.4
20260506160458 13 62 6.4 25.7 0.00 0.00 0.00 69 1009.4
20260506155949 13 47 6.4 17.7 0.00 0.00 0.00 68 1009.4
20260506155445 13 62 6.4 17.7 0.00 0.00 0.00 67 1009.3
20260506155212 13 53 6.4 16.1 0.00 0.00 0.00 66 1009.4
20260506154432 13 49 4.8 16.1 0.00 0.00 0.00 64 1009.4
20260506153926 13 26 6.4 19.3 0.00 0.00 0.00 64 1009.5
20260506153420 13 41 6.4 19.3 0.00 0.00 0.00 64 1009.5
20260506152914 13 294 6.4 17.7 0.00 0.00 0.00 65 1009.4
20260506152413 13 78 6.4 20.9 0.00 0.00 0.00 63 1009.4
20260506152153 12 67 6.4 20.9 0.00 0.00 0.00 61 1009.4
20260506151413 12 73 4.8 16.1 0.00 0.00 0.00 62 1009.5
20260506150912 12 0 6.4 24.1 0.00 0.00 0.00 60 1009.4
20260506150419 12 63 8.0 24.1 0.00 0.00 0.00 61 1009.5
20260506145413 12 0 6.4 20.9 0.00 0.00 0.00 61 1009.4
20260506144913 12 71 6.4 22.5 0.00 0.00 0.00 64 1009.3
20260506144413 12 33 8.0 22.5 0.00 0.00 0.00 64 1009.4
20260506143914 12 25 8.0 20.9 0.00 0.00 0.00 64 1009.4
20260506143415 12 88 8.0 32.2 0.00 0.00 0.00 66 1009.3
20260506142914 12 351 8.0 32.2 0.00 0.00 0.00 66 1009.3
20260506142412 12 64 8.0 25.7 0.00 0.00 0.00 69 1009.3
20260506141914 12 68 8.0 25.7 0.00 0.00 0.00 68 1009.4
20260506141429 12 46 8.0 25.7 0.00 0.00 0.00 68 1009.4
20260506140409 12 64 6.4 22.5 0.00 0.00 0.00 71 1009.4
20260506135909 12 82 6.4 19.3 0.00 0.00 0.00 69 1009.4
20260506135408 12 327 6.4 19.3 0.00 0.00 0.00 69 1009.3
20260506134909 12 339 6.4 22.5 0.00 0.00 0.00 66 1009.3
20260506134408 12 75 6.4 22.5 0.00 0.00 0.00 66 1009.3
20260506134142 13 44 6.4 19.3 0.00 0.00 0.00 66 1009.3
20260506133410 13 38 6.4 19.3 0.00 0.00 0.00 64 1009.2
20260506132908 13 53 6.4 20.9 0.00 0.00 0.00 61 1009.3
20260506132407 13 63 6.4 20.9 0.00 0.00 0.00 57 1009.2
20260506131906 13 86 6.4 20.9 0.00 0.00 0.00 57 1009.3
20260506131406 13 77 6.4 16.1 0.00 0.00 0.00 57 1009.2
20260506130907 13 80 6.4 17.7 0.00 0.00 0.00 60 1009.2
20260506130408 13 103 6.4 19.3 0.00 0.00 0.00 58 1009.1
20260506125907 13 88 6.4 19.3 0.00 0.00 0.00 58 1009.1
20260506125407 13 92 8.0 24.1 0.00 0.00 0.00 59 1009.1
20260506125143 13 97 6.4 24.1 0.00 0.00 0.00 57 1009.1
20260506124408 13 123 6.4 25.7 0.00 0.00 0.00 59 1009.1
20260506123906 13 78 8.0 25.7 0.00 0.00 0.00 59 1009.2
20260506123406 13 111 8.0 20.9 0.00 0.00 0.00 59 1009.0
20260506123140 13 344 8.0 20.9 0.00 0.00 0.00 60 1009.0
20260506122420 13 103 8.0 17.7 0.00 0.00 0.00 60 1009.0
20260506121915 13 177 8.0 24.1 0.00 0.00 0.00 61 1009.2
20260506121403 13 125 8.0 24.1 0.00 0.00 0.00 60 1009.1
20260506120904 13 355 6.4 22.5 0.00 0.00 0.00 60 1009.1
20260506120403 13 78 4.8 22.5 0.00 0.00 0.00 59 1009.0
20260506120138 13 107 6.4 19.3 0.00 0.00 0.00 62 1008.9
20260506115403 13 63 8.0 19.3 0.00 0.00 0.00 60 1009.0
20260506114902 13 103 6.4 19.3 0.00 0.00 0.00 60 1009.0
20260506114400 13 0 6.4 17.7 0.00 0.00 0.00 61 1008.9
20260506113902 13 0 6.4 27.4 0.00 0.00 0.00 61 1008.9
20260506113401 13 0 8.0 27.4 0.00 0.00 0.00 60 1008.9
20260506112855 12 0 8.0 24.1 0.00 0.00 0.00 61 1008.9
20260506112349 12 0 6.4 19.3 0.00 0.00 0.00 62 1008.8
20260506112132 12 0 6.4 19.3 0.00 0.00 0.00 63 1008.9
20260506111339 12 111 8.0 19.3 0.00 0.00 0.00 61 1008.9
20260506110829 12 153 8.0 19.3 0.00 0.00 0.00 62 1008.9
20260506110327 12 100 6.4 19.3 0.00 0.00 0.00 62 1008.9
20260506105819 12 118 6.4 19.3 0.00 0.00 0.00 63 1008.8
20260506105315 12 118 8.0 24.1 0.00 0.00 0.00 62 1008.9
20260506104807 12 319 8.0 24.1 0.00 0.00 0.00 63 1008.9
20260506104031 12 151 6.4 19.3 0.00 0.00 0.00 62 1008.7
20260506103249 12 140 6.4 17.7 0.00 0.00 0.00 62 1008.8
20260506103021 12 342 6.4 20.9 0.00 0.00 0.00 62 1008.8
20260506102237 12 94 8.0 20.9 0.00 0.00 0.00 61 1008.9
20260506101732 12 116 8.0 19.3 0.00 0.00 0.00 63 1008.8
20260506101225 12 355 8.0 29.0 0.00 0.00 0.00 62 1008.7
20260506100719 12 104 8.0 29.0 0.00 0.00 0.00 61 1008.6
20260506100227 12 115 6.4 22.5 0.00 0.00 0.00 62 1008.7
20260506095707 12 86 6.4 20.9 0.00 0.00 0.00 62 1008.6
20260506095434 12 337 6.4 20.9 0.00 0.00 0.00 63 1008.5
20260506094930 12 105 6.4 17.7 0.00 0.00 0.00 62 1008.6
20260506094423 12 0 8.0 19.3 0.00 0.00 0.00 63 1008.5
20260506093915 12 148 8.0 20.9 0.00 0.00 0.00 62 1008.5
20260506093137 12 159 6.4 20.9 0.00 0.00 0.00 62 1008.6
20260506092631 12 113 6.4 20.9 0.00 0.00 0.00 64 1008.5
20260506092125 12 355 6.4 20.9 0.00 0.00 0.00 63 1008.5
20260506091617 12 88 6.4 20.9 0.00 0.00 0.00 63 1008.5
20260506091114 12 72 6.4 20.9 0.00 0.00 0.00 63 1008.5
20260506090608 12 92 6.4 20.9 0.00 0.00 0.00 62 1008.5
20260506085553 12 78 8.0 22.5 0.00 0.00 0.00 65 1008.4
20260506085320 12 94 8.0 22.5 0.00 0.00 0.00 65 1008.4
20260506084555 12 84 6.4 22.5 0.00 0.00 0.00 67 1008.4
20260506084312 12 74 8.0 22.5 0.00 0.00 0.00 67 1008.3
20260506083531 12 134 8.0 22.5 0.00 0.00 0.00 68 1008.4
20260506083025 11 65 8.0 24.1 0.00 0.00 0.00 68 1008.4
20260506082519 11 106 6.4 24.1 0.00 0.00 0.00 68 1008.3
20260506082014 11 87 6.4 20.9 0.00 0.00 0.00 71 1008.3
20260506081509 11 82 6.4 20.9 0.00 0.00 0.00 70 1008.2
20260506081001 11 90 6.4 24.1 0.00 0.00 0.00 73 1008.3
20260506080730 11 120 6.4 24.1 0.00 0.00 0.00 74 1008.3
20260506073421 10 43 4.8 12.9 0.00 0.00 0.00 81 1008.1
20260506072914 10 46 4.8 19.3 0.00 0.00 0.00 82 1008.1
20260506072407 10 41 4.8 19.3 0.00 0.00 0.00 82 1008.0
20260506071915 10 336 4.8 14.5 0.00 0.00 0.00 83 1008.1
20260506071355 10 49 4.8 17.7 0.00 0.00 0.00 83 1008.0
20260506070849 10 31 4.8 17.7 0.00 0.00 0.00 83 1008.0
20260506070614 10 71 4.8 12.9 0.00 0.00 0.00 84 1008.0
20260506062317 9 52 4.8 19.3 0.00 0.00 0.00 84 1007.9
20260506061818 9 38 4.8 19.3 0.00 0.00 0.00 84 1007.9
20260506061318 8 19 4.8 14.5 0.00 0.00 0.00 84 1007.9
20260506061049 8 29 3.2 14.5 0.00 0.00 0.00 84 1007.9
20260506060316 8 30 4.8 20.9 0.00 0.00 0.00 84 1007.9
20260506050810 8 19 8.0 24.1 0.00 0.00 0.00 85 1007.9
20260506050311 8 28 6.4 19.3 0.00 0.00 0.00 85 1007.8
20260506044806 8 355 6.4 17.7 0.00 0.00 0.00 85 1007.9
20260506044307 8 27 8.0 17.7 0.00 0.00 0.00 85 1007.8
20260506043808 8 40 6.4 16.1 0.00 0.00 0.00 85 1007.8
20260506043306 8 24 6.4 14.5 0.00 0.00 0.00 85 1007.7
20260506042806 8 338 8.0 22.5 0.00 0.00 0.00 85 1007.8
20260506042306 9 348 8.0 22.5 0.00 0.00 0.00 85 1007.8
20260506041807 8 349 6.4 20.9 0.00 0.00 0.00 85 1007.7
20260506041305 9 355 6.4 17.7 0.00 0.00 0.00 85 1007.9
20260506040807 9 9 6.4 20.9 0.00 0.00 0.00 84 1007.8
20260506040538 9 0 4.8 20.9 0.00 0.00 0.00 84 1007.8
20260506035805 9 10 4.8 16.1 0.00 0.00 0.00 84 1007.9
20260506035306 9 355 4.8 16.1 0.00 0.00 0.00 84 1007.9
20260506034806 9 34 4.8 12.9 0.00 0.00 0.00 84 1007.9